Location: Ffald-y-Brenin
(52.0833°N, 4.0000°W)
Time: 08:54:09
(UTC+00:00)

H-2A R/B - Pass Details

Date: 18 February 2020
Orbit: 503 x 540 km, 97.3° (Epoch: 28 February)

Event Time Altitude Azimuth Distance (km) Brightness Sun altitude
Rises 06:15:35 0° 17° (NNE) 2,658 6.5 -11.5°
Reaches altitude 10° 06:17:46 10° 22° (NNE) 1,758 5.6 -11.2°
Maximum altitude 06:21:28 50° 100° (E) 658 3.7 -10.6°
Drops below altitude 10° 06:25:05 10° 176° (S) 1,725 5.5 -10.0°
Sets 06:27:12 0° 182° (S) 2,601 6.3 -9.7°
